When you browse on this site, cookies collect data to enhance your experience and personalize the content and advertising you see.
Visit our Privacy Policy to learn more. By continuing to use the site, you agree to this use of cookies and data.
  • In Sweden
  • List of Countries
  • For 7 days
  • Water Temperature
  • Satellite Maps
  • Weather Map
  • Weather Widgets
  • user-avatar
    Login

    Hourly Weather Citrus Park

    Today, 23 May, Thursday

    Time Temperature Precipitation Wind Pressure Humidity
    00:00 +26°C° 0 mm 4 mps 764 mmHg 67%
    01:00 +26°C° 0 mm 4 mps 763 mmHg 69%
    02:00 +26°C° 0 mm 4 mps 763 mmHg 71%
    03:00 +25°C° 0 mm 4 mps 763 mmHg 73%
    04:00 +26°C° 0 mm 4 mps 763 mmHg 72%
    05:00 +26°C° 0 mm 4 mps 764 mmHg 72%
    06:00 +26°C° 0 mm 4 mps 764 mmHg 72%
    07:00 +28°C° 0 mm 4 mps 764 mmHg 64%
    08:00 +29°C° 0 mm 4 mps 764 mmHg 56%
    09:00 +32°C° 0 mm 4 mps 764 mmHg 48%
    10:00 +33°C° 0 mm 4 mps 764 mmHg 46%
    11:00 +35°C° 0 mm 4 mps 764 mmHg 43%
    12:00 +36°C° 0 mm 4 mps 764 mmHg 40%
    13:00 +36°C° 0 mm 4 mps 764 mmHg 41%
    14:00 +36°C° 0 mm 5 mps 763 mmHg 42%
    15:00 +36°C° 0 mm 5 mps 763 mmHg 43%
    16:00 +35°C° 0 mm 5 mps 763 mmHg 45%
    17:00 +34°C° 0 mm 6 mps 763 mmHg 47%
    18:00 +32°C° 0 mm 7 mps 763 mmHg 48%
    19:00 +30°C° 0 mm 6 mps 763 mmHg 55%
    20:00 +29°C° 0 mm 6 mps 764 mmHg 61%
    21:00 +27°C° 0 mm 6 mps 764 mmHg 67%
    22:00 +27°C° 0 mm 6 mps 764 mmHg 69%
    23:00 +26°C° 0 mm 5 mps 764 mmHg 71%

    Tomorrow, 24 May, Friday

    Time Temperature Precipitation Wind Pressure Humidity
    00:00 +26°C° 0 mm 5 mps 764 mmHg 73%
    01:00 +25°C° 0 mm 5 mps 763 mmHg 75%
    02:00 +25°C° 0 mm 4 mps 763 mmHg 76%
    03:00 +25°C° 0 mm 4 mps 763 mmHg 77%
    04:00 +25°C° 0 mm 4 mps 763 mmHg 77%
    05:00 +25°C° 0 mm 4 mps 763 mmHg 76%
    06:00 +25°C° 0 mm 4 mps 763 mmHg 75%
    07:00 +27°C° 0 mm 4 mps 763 mmHg 68%
    08:00 +29°C° 0 mm 4 mps 764 mmHg 60%
    09:00 +30°C° 0 mm 4 mps 764 mmHg 52%
    10:00 +33°C° 0 mm 4 mps 764 mmHg 47%
    11:00 +34°C° 0 mm 4 mps 763 mmHg 41%
    12:00 +36°C° 0 mm 4 mps 763 mmHg 36%
    13:00 +36°C° 0 mm 4 mps 762 mmHg 35%
    14:00 +37°C° 0 mm 4 mps 762 mmHg 35%
    15:00 +37°C° 0 mm 4 mps 761 mmHg 34%
    16:00 +36°C° 0 mm 4 mps 761 mmHg 38%
    17:00 +35°C° 0 mm 5 mps 761 mmHg 42%
    18:00 +34°C° 0 mm 5 mps 761 mmHg 45%
    19:00 +32°C° 0 mm 5 mps 762 mmHg 50%
    20:00 +30°C° 0 mm 5 mps 762 mmHg 55%
    21:00 +29°C° 0 mm 5 mps 763 mmHg 61%
    22:00 +28°C° 0 mm 5 mps 762 mmHg 64%
    23:00 +27°C° 0 mm 4 mps 762 mmHg 67%

    Day after tomorrow, 25 May, Saturday

    Time Temperature Precipitation Wind Pressure Humidity
    00:00 +27°C° 0 mm 4 mps 762 mmHg 70%
    01:00 +26°C° 0 mm 3 mps 762 mmHg 71%
    02:00 +26°C° 0 mm 3 mps 762 mmHg 73%
    03:00 +26°C° 0 mm 2 mps 762 mmHg 75%
    04:00 +26°C° 0 mm 2 mps 762 mmHg 74%
    05:00 +26°C° 0 mm 2 mps 762 mmHg 74%
    06:00 +26°C° 0 mm 2 mps 762 mmHg 73%
    07:00 +28°C° 0 mm 2 mps 763 mmHg 67%
    08:00 +30°C° 0 mm 2 mps 763 mmHg 60%
    09:00 +31°C° 0 mm 3 mps 763 mmHg 53%
    10:00 +34°C° 0 mm 3 mps 763 mmHg 48%
    11:00 +36°C° 0 mm 4 mps 763 mmHg 43%
    12:00 +37°C° 0 mm 4 mps 762 mmHg 39%
    13:00 +37°C° 0 mm 4 mps 762 mmHg 38%
    14:00 +39°C° 0 mm 5 mps 761 mmHg 38%
    15:00 +39°C° 0 mm 5 mps 761 mmHg 37%
    16:00 +37°C° 0 mm 5 mps 761 mmHg 41%
    17:00 +35°C° 0 mm 5 mps 761 mmHg 44%
    18:00 +34°C° 0 mm 5 mps 761 mmHg 47%
    19:00 +33°C° 0 mm 5 mps 762 mmHg 52%
    20:00 +32°C° 0 mm 5 mps 762 mmHg 57%
    21:00 +30°C° 0 mm 5 mps 763 mmHg 61%
    22:00 +29°C° 0 mm 5 mps 763 mmHg 64%
    23:00 +28°C° 0 mm 5 mps 763 mmHg 68%

    26 May, Sunday

    Time Temperature Precipitation Wind Pressure Humidity
    00:00 +28°C° 0 mm 4 mps 762 mmHg 71%
    01:00 +28°C° 0 mm 4 mps 762 mmHg 73%
    02:00 +27°C° 0 mm 3 mps 762 mmHg 75%
    03:00 +27°C° 0 mm 3 mps 762 mmHg 77%
    04:00 +27°C° 0 mm 3 mps 762 mmHg 77%
    05:00 +27°C° 0 mm 3 mps 762 mmHg 76%
    06:00 +27°C° 0 mm 2 mps 763 mmHg 76%
    07:00 +29°C° 0 mm 2 mps 763 mmHg 69%
    08:00 +31°C° 0 mm 2 mps 763 mmHg 62%
    09:00 +33°C° 0 mm 3 mps 763 mmHg 55%
    10:00 +35°C° 0 mm 3 mps 763 mmHg 50%
    11:00 +36°C° 0 mm 3 mps 763 mmHg 45%
    12:00 +37°C° 0 mm 2 mps 762 mmHg 40%
    13:00 +38°C° 0 mm 3 mps 762 mmHg 39%
    14:00 +38°C° 0 mm 3 mps 761 mmHg 38%
    15:00 +38°C° 0 mm 3 mps 761 mmHg 38%
    16:00 +37°C° 0 mm 3 mps 761 mmHg 43%
    17:00 +36°C° 0 mm 3 mps 761 mmHg 47%
    18:00 +35°C° 0 mm 3 mps 761 mmHg 52%
    19:00 +34°C° 0 mm 4 mps 761 mmHg 55%
    20:00 +33°C° 0 mm 4 mps 762 mmHg 58%
    21:00 +32°C° 0 mm 5 mps 762 mmHg 61%
    22:00 +30°C° 0 mm 4 mps 762 mmHg 65%
    23:00 +29°C° 0 mm 4 mps 762 mmHg 70%

    27 May, Monday

    Time Temperature Precipitation Wind Pressure Humidity
    00:00 +28°C° 0 mm 3 mps 761 mmHg 74%
    01:00 +28°C° 0 mm 3 mps 761 mmHg 76%
    02:00 +27°C° 0 mm 2 mps 761 mmHg 78%
    03:00 +27°C° 0 mm 2 mps 761 mmHg 80%
    04:00 +27°C° 0 mm 2 mps 761 mmHg 79%
    05:00 +27°C° 0 mm 2 mps 761 mmHg 78%
    06:00 +28°C° 0 mm 1 mps 761 mmHg 77%
    07:00 +29°C° 0 mm 2 mps 762 mmHg 70%
    08:00 +31°C° 0 mm 2 mps 762 mmHg 63%
    09:00 +32°C° 0 mm 2 mps 762 mmHg 56%
    10:00 +34°C° 0 mm 3 mps 761 mmHg 50%
    11:00 +36°C° 0 mm 3 mps 761 mmHg 44%
    12:00 +37°C° 0 mm 3 mps 761 mmHg 38%
    13:00 +37°C° 0 mm 3 mps 760 mmHg 39%
    14:00 +37°C° 0 mm 3 mps 760 mmHg 39%
    15:00 +37°C° 0 mm 3 mps 759 mmHg 40%
    16:00 +36°C° 0 mm 3 mps 759 mmHg 42%
    17:00 +35°C° 0 mm 3 mps 759 mmHg 45%
    18:00 +35°C° 0 mm 3 mps 760 mmHg 48%
    19:00 +33°C° 0 mm 3 mps 760 mmHg 50%
    20:00 +32°C° 0 mm 4 mps 760 mmHg 53%
    21:00 +30°C° 0 mm 5 mps 761 mmHg 55%
    22:00 +29°C° 0 mm 4 mps 761 mmHg 59%
    23:00 +28°C° 0 mm 4 mps 761 mmHg 63%

    28 May, Tuesday

    Time Temperature Precipitation Wind Pressure Humidity
    00:00 +27°C° 0 mm 4 mps 760 mmHg 67%
    01:00 +27°C° 0 mm 4 mps 760 mmHg 68%
    02:00 +26°C° 0 mm 4 mps 760 mmHg 69%
    03:00 +26°C° 0 mm 3 mps 760 mmHg 70%
    04:00 +26°C° 0 mm 3 mps 760 mmHg 69%
    05:00 +26°C° 0 mm 3 mps 760 mmHg 69%
    06:00 +26°C° 0 mm 3 mps 761 mmHg 68%
    07:00 +28°C° 0 mm 3 mps 761 mmHg 61%
    08:00 +30°C° 0 mm 3 mps 761 mmHg 53%
    09:00 +31°C° 0 mm 3 mps 761 mmHg 46%
    10:00 +34°C° 0 mm 3 mps 760 mmHg 41%
    11:00 +36°C° 0 mm 3 mps 760 mmHg 37%
    12:00 +37°C° 0 mm 3 mps 760 mmHg 32%
    13:00 +38°C° 0 mm 3 mps 759 mmHg 32%
    14:00 +38°C° 0 mm 3 mps 759 mmHg 31%
    15:00 +38°C° 0 mm 3 mps 759 mmHg 31%
    16:00 +37°C° 0 mm 3 mps 759 mmHg 33%
    17:00 +36°C° 0 mm 4 mps 759 mmHg 36%
    18:00 +35°C° 0 mm 4 mps 759 mmHg 39%
    19:00 +33°C° 0 mm 5 mps 760 mmHg 44%
    20:00 +32°C° 0 mm 6 mps 760 mmHg 50%
    21:00 +29°C° 0 mm 6 mps 760 mmHg 55%
    22:00 +28°C° 0 mm 6 mps 760 mmHg 59%
    23:00 +27°C° 0 mm 5 mps 760 mmHg 63%
    Show more